Time,TemperatureF,DewpointF,PressureIn,WindDirection,WindDirectionDegrees,WindSpeedMPH,WindSpeedGustMPH,Humidity,HourlyPrecipIn,Conditions,Clouds,dailyrainin,SoftwareType,DateUTC
2013-09-11 00:14:00,65.0,64.0,-100.00,South,170,9.0,10.0,97,-99.99,,,-99.99,,2013-09-11 04:14:00,
2013-09-11 00:43:00,65.0,64.0,-100.00,South,170,8.0,10.0,96,-99.99,,,-99.99,,2013-09-11 04:43:00,
2013-09-11 03:50:00,62.0,62.0,-100.00,North,10,7.0,8.0,97,-99.99,,,-99.99,,2013-09-11 07:50:00,
2013-09-11 03:52:00,63.0,62.0,-100.00,ENE,70,7.0,8.0,98,-99.99,,,-99.99,,2013-09-11 07:52:00,
2013-09-11 04:22:00,62.0,62.0,-100.00,North,10,7.0,8.0,97,-99.99,,,-99.99,,2013-09-11 08:22:00,
2013-09-11 04:32:00,62.0,62.0,-100.00,North,10,7.0,8.0,97,-99.99,,,-99.99,,2013-09-11 08:32:00,
2013-09-11 04:42:00,62.0,62.0,-100.00,North,10,7.0,8.0,97,-99.99,,,-99.99,,2013-09-11 08:42:00,
2013-09-11 08:11:00,62.0,62.0,-100.00,NNE,30,1.0,2.0,100,-99.99,,,-99.99,,2013-09-11 12:11:00,
2013-09-11 09:12:00,62.0,62.0,-100.00,West,260,2.0,3.0,100,-99.99,,,-99.99,,2013-09-11 13:12:00,
2013-09-11 10:21:00,62.0,62.0,-100.00,South,180,8.0,8.0,100,-99.99,,,-99.99,,2013-09-11 14:21:00,
2013-09-11 10:52:00,63.0,63.0,-100.00,South,180,9.0,9.0,99,-99.99,,,-99.99,,2013-09-11 14:52:00,
2013-09-11 11:11:00,64.0,63.0,-100.00,South,180,12.0,13.0,95,-99.99,,,-99.99,,2013-09-11 15:11:00,
2013-09-11 11:43:00,68.0,62.0,-100.00,South,180,12.0,13.0,82,-99.99,,,-99.99,,2013-09-11 15:43:00,
2013-09-11 12:13:00,70.0,62.0,-100.00,SSW,200,8.0,10.0,75,-99.99,,,-99.99,,2013-09-11 16:13:00,
2013-09-11 14:12:00,73.0,62.0,-100.00,ENE,60,1.0,2.0,70,-99.99,,,-99.99,,2013-09-11 18:12:00,
2013-09-11 15:11:00,70.0,62.0,-100.00,East,80,10.0,12.0,76,-99.99,,,-99.99,,2013-09-11 19:11:00,
2013-09-11 17:44:00,69.0,61.0,-100.00,NNW,340,3.0,12.0,78,-99.99,,,-99.99,,2013-09-11 21:44:00,
2013-09-11 18:13:00,67.0,63.0,-100.00,North,350,13.0,18.0,86,-99.99,,,-99.99,,2013-09-11 22:13:00,
2013-09-11 19:12:00,67.0,63.0,-100.00,NW,310,22.0,24.0,88,-99.99,,,-99.99,,2013-09-11 23:12:00,
2013-09-11 20:11:00,66.0,62.0,-100.00,NW,310,26.0,30.0,87,-99.99,,,-99.99,,2013-09-12 00:11:00,
2013-09-11 22:12:00,65.0,62.0,-100.00,WNW,290,8.0,10.0,88,-99.99,,,-99.99,,2013-09-12 02:12:00,
2013-09-11 23:11:00,64.0,59.0,-100.00,West,280,13.0,15.0,84,-99.99,,,-99.99,,2013-09-12 03:11:00,
2013-09-11 23:45:00,64.0,59.0,-100.00,WNW,290,17.0,18.0,84,-99.99,,,-99.99,,2013-09-12 03:45:00,